ONEWEB-0531, 54146

Orbit data source: Space-Track

ONEWEB-0531, 54146 is a payload satellite owned by One Web (NAA) (UK) in LEO that was launched on Sat, 22 Oct 2022 UTC via a LVM3 launch vehicle from the Sirharikota (SRI). Payload-class satellites include a variety of spacecraft equipped with specific instruments for various scientific and technological missions. These include communications satellites like Starlink; space stations such as the ISS; scientific satellites like the Hubble; Earth observation satellites from companies like Planet Labs, Umbra, and HawkEye 360; GPS; miniature CubeSats for education and research; and military/defense satellites.

Loading next visibility...
Identifier
54146, 2022-138AK
Orbit
LEO
Country
Flag of UKUK
Related business
Manufacturer
One Web
Mission
Operational Commercial Communications
Bus & Motor
ARROW, Unknown motor
Mass
148 kg wet, ~140 kg dry
Launch date (UTC)
2022-10-22 (4 years ago)
Launch vehicle
LVM3
Launch site
Sirharikota (SRI)
Object type
Payload
Rocket body
Debris
Shape & HBR
Trap Box + 2 Pan, 6.7 m
Radar Cross Section
3.464 m², Large (>1 m²)

Expand to show TLE details & history
Last TLE update: 2 days ago

TLE from 2 days ago
0 ONEWEB-0531
1 54146U 22138AK  26171.33906184 -.00000007  00000-0 -50174-4 0  9997
2 54146  87.9195 273.8068 0002866 101.0366 259.1089 13.20771881179722
Epoch: 2026-06-20T08:08Z
TLE epoch observation values (Epoch: 2026-06-20T08:08:14.942Z)
Latitude
-0.00013°
Longitude
-116.81057°
Altitude
1,185.086 km
Speed
7.261 km/s
True Right ascension
18h 15m 13s
True Declination
0° 00' 00"
Sunlit
Object was in full shadow at epoch
Visualization orbit readout
Latitude
Unknown
Longitude
Unknown
Altitude
Unknown
Speed
Unknown
Apparent Right ascension
Unknown
Apparent Declination
Unknown
Sunlit
N/A
Visualization observer readout
Local Sidereal Time
21:31:29
Azimuth
Unknown
Elevation
Unknown
Doppler factor
Unknown
Orbital elements
Apogee altitude
1,181.043 km
Perigee altitude
1,176.711 km
Semi-major axis
7,557.014 km
Eccentricity
0.00029
Inclination
87.9195°
RAAN
273.8068°
Arg. of periapsis
101.0366°
True anomaly
259.07665°
Mean anomaly
259.1089°
Eccentric anomaly
259.09278°
Mean motion
3.30383 °/min
Orbital period
108.96 mins
BSTAR
-0.000050174
Loading maneuver chart data...
Computing Atmospheric mass density...
Loading historical data...
Loading historical data...
Loading historical data...
Loading historical data...
Loading historical data...
Loading historical data...
Loading historical data...

Documentation

Showing up to 5 results
|